Location: USNO
(38.9242°N, 77.0663°W)
Time: 01:55:16
(UTC-04:00)

ISS - Pass Details

Date: 08 October 2017
Orbit: 401 x 408 km, 51.6° (Epoch: 18 October)

Event Time Altitude Azimuth Distance (km) Brightness Sun altitude
Rises 19:50:09 0° 317° (NW) 2,326 0.8 -14.5°
Reaches altitude 10° 19:53:14 10° 349° (NNW) 1,466 -0.8 -15.1°
Maximum altitude 19:54:43 12° 15° (NNE) 1,329 -1.3 -15.4°
Enters shadow 19:55:22 12° 28° (NNE) 1,357 -1.4 -15.5°
